Regional Weather Roundup
Issued by NWS State College, PA

Home |  Current Version |  Previous Version |  Graphics & Text |  Print | Product List |  Glossary On
Versions: 1 2 3 4 5 6 7 8 9 10 11 12 13 14 15 16 17 18 19 20 21 22 23 24 25 26 27 28 29 30 31 32 33 34 35 36 37 38 39 40 41 42 43 44 45 46 47 48 49 50
628
ASUS41 KCTP 262010
RWRCTP

REGIONAL WEATHER ROUNDUP
NATIONAL WEATHER SERVICE STATE COLLEGE PA
400 PM EDT SUN MAY 26 2024

Note: "fair" indicates few or no clouds below 12,000 feet with no
significant weather and/or obstructions to visibility.

* = STATION THAT DOES NOT REPORT PRECIPITATION /E.G. RAIN...SNOW...ETC/
    THUNDER OR FOG.

PAZ002>004-007>009-013>016-020>023-029>032-262100-
WESTERN PENNSYLVANIA

CITY           SKY/WX    TMP DP  RH WIND       PRES   REMARKS
ERIE           PTSUNNY   73  60  63 NE15      29.81F
MEADVILLE      PTSUNNY   79  59  50 VRB3      29.82F
FRANKLIN       PTSUNNY   78  61  55 SE9       29.85F
NEW CASTLE     PTSUNNY   80  66  62 VRB5      29.81F
BEAVER COUNTY  CLOUDY    81  64  55 S8        29.81F
BUTLER         CLOUDY    80  65  59 SE12      29.83F
PITTSBURGH INT CLOUDY    82  62  50 SE12      29.81F
PITTSBURGH     PTSUNNY   82  61  48 S8        29.81F
INDIANA*       MOSUNNY   79  64  61 SE10      29.89F
LATROBE        PTSUNNY   82  63  51 S13       29.83F
CONNELLSVILLE  NOT AVBL
WASHINGTON CO* CLOUDY    80  66  62 SE8       29.84F
$$

PAZ004>006-010>012-017>019-024>028-033>037-041-042-045-046-049>053-262100-
CENTRAL PENNSYLVANIA

CITY           SKY/WX    TMP DP  RH WIND       PRES   REMARKS
BRADFORD       MOSUNNY   78  55  44 CALM      29.90F
ST MARYS       PTSUNNY   77  55  47 CALM      29.92F
DUBOIS         MOSUNNY   80  58  46 E10       29.88F
CLEARFIELD     MOSUNNY   78  58  49 VRB7      29.89F
JOHNSTOWN      PTSUNNY   73  60  63 SE7G17    29.90F
SOMERSET       PTSUNNY   75  59  57 SE12G17   29.91F
ALTOONA        PTSUNNY   80  61  52 SE10      29.90F
STATE COLLEGE  MOSUNNY   79  61  53 S3        29.90F
REEDSVILLE     MOSUNNY   81  61  50 SE7       29.88F
WELLSBORO      SUNNY     75  55  50 S9        29.92F
WILLIAMSPORT   SUNNY     80  59  48 E3        29.87F
SELINSGROVE    MOSUNNY   80  58  46 CALM      29.88F
FT INDIANTOWN  NOT AVBL
CAPITAL CITY   MOSUNNY   86  60  41 E6        29.86F
HARRISBURG     MOSUNNY   83  63  50 CALM      29.85F
YORK           MOSUNNY   83  60  45 VRB3      29.87F
$$

PAZ038>040-043-044-047-048-054-055-060>062-067>071-262100-
EASTERN PENNSYLVANIA

CITY           SKY/WX    TMP DP  RH WIND       PRES   REMARKS
TOWANDA        NOT AVBL
SCRANTON       MOSUNNY   80  62  54 NW5       29.89F
MOUNT POCONO   MOSUNNY   78  56  46 S7        29.93F
HAZLETON       MOSUNNY   77  63  61 NW6       29.95F
LEHIGHTON      SUNNY     82  55  39 CALM      29.88F
ALLENTOWN      MOSUNNY   83  61  47 SW3       29.86F
QN CITY/ALNTWN MOSUNNY   84  63  48 CALM      29.88F
QUAKERTOWN*    MOSUNNY   86  64  48 S3        29.87F
PERKASIE*      PTSUNNY   84  66  54 VRB6G12   29.87F
DOYLESTOWN     MOSUNNY   86  65  49 CALM      29.86F
READING        MOSUNNY   86  59  39 CALM      29.84F
LANCASTER      SUNNY     85  62  46 NW5       29.85F
COATESVILLE    SUNNY     84  61  45 CALM      29.88F
WEST CHESTER   MOSUNNY   84  61  45 CALM      29.86F
POTTSTOWN      MOSUNNY   85  65  51 NW3       29.87F
BLUE BELL      MOSUNNY   87  63  45 W5        29.86F
NORTH PHILA    CLOUDY    85  65  51 NE7       29.86F
PHILADELPHIA   MOSUNNY   85  66  53 SW6       29.85F
$$